www.pogodaiklimat.ru

Погода и климат >> Архив погоды >> Монголия >> Байтаг


ПОГОДА в Байтаге

  • Прогноз погоды в Байтаге
  • Монитор погоды в Байтаге

АРХИВ ПОГОДЫ в Байтаге

Время (UTC), дата Ветер
(напр.,м/с)
 
Видим.   Явления Облачность Т
(С)
Тd
(С)
f
(%)
Тe
(С)
Тes
(С)
Комфортность P
(гПа)
Po
(гПа)
Тmin
(С)
Tmax
(С)
R
(мм)
R24
(мм)
S
(см)
09 9.09 С 1 50 км 4/1 1000 м
[Cu hum Ci]
+24.5 -0.6 19 +23 +29 комфорт 1005.3 877.4
12 9.09 С 2 50 км 8/0
[Ac trans Ci sp]
+23.3 +0.4 22 +22 +22 комфорт 1004.8 876.5 +25.5
15 9.09 СВ 2 н/о 1/0
[Ci fib]
+13.1 +2.8 50 +13 +13 1010.0 876.7
18 9.09 СВ 4 н/о 1/0
[Ac lent]
+17.0 +0.8 33 +17 +17 1007.0 875.8
21 9.09 З 1 н/о ясно +12.3 +2.1 50 +13 +13 1010.2 876.6
00 10.09 Ю 2 50 км 6/0
[Ac cast Ci sp]
+12.6 +5.2 61 +12 +12 1012.2 878.4 +8.8
03 10.09 Ю 2 50 км 9/0
[Ac As]
+15.2 +6.2 55 +15 +18 1012.1 879.5
06 10.09 СЗ 1 50 км 9/9 1000 м
[Sc]
+17.8 +6.1 46 +19 +20 1009.6 878.3
09 10.09 З 5 50 км 9/3 1000 м
[Cu Sc Ac trans Ci]
+17.8 +6.7 48 +17 +19 1008.9 877.8
12 10.09 З 5
{13}
50 км 8/3 1000 м
[Cu Sc Ac trans Ci fib]
+14.0 +5.5 57 +12 +12 1012.7 879.5 +20.3
15 10.09 З 6
{13}
н/о 8/3 1000 м
[Sc Ac trans]
+10.7 +6.9 77 +8 +8 1017.9 882.6
18 10.09 З 5
{11}
н/о 10/10 1000 м
[Sc]
+9.7 +6.4 80 +7 +7 1018.8 882.8
21 10.09 З 6 н/о {дождь} 10/0 1000 м
[As op]
+9.2 +6.0 80 +6 +6 1019.2 883.0
00 11.09 З 5 50 км 9/3 1000 м
[Cu Sc Ac lent]
+9.1 +5.5 78 +6 +6 1020.6 884.2 +8.7 2
03 11.09 З 5 50 км 9/3 1000 м
[Cu hum As trans]
+10.9 +4.9 66 +8 +9 1021.1 885.4
06 11.09 З 7
{13}
50 км 9/9 1000 м
[Cu Sc]
+13.4 +3.8 52 +11 +11 1019.4 885.0
09 11.09 З 8-16
{16}
50 км 8/5 1000 м
[Cb calv Ac cuf]
+13.1 +3.1 51 +11 +11 1019.2 884.7
12 11.09 З 5-11
{16}
50 км 5/4 1000 м
[Cu hum Ci fib]
+11.6 +2.4 53 +9 +9 1021.5 886.1 +15.9
15 11.09 З 5
{11}
н/о 3/0
[Ac lent Ci fib]
+9.9 +2.1 58 +7 +7 1023.9 887.4
18 11.09 З 2 н/о ясно +8.1 +2.6 68 +6 +6 1025.3 887.8
21 11.09 З 4 н/о 3/0
[Ci]
+7.4 +2.6 72 +4 +4 1025.5 887.6
00 12.09 З 3 50 км 8/8 1000 м
[Sc]
+8.7 +1.9 62 +6 +6 1025.8 888.5 +6.5
03 12.09 З 3 50 км 4/3 1000 м
[Cu med, cong Ac cuf]
+11.3 +3.1 57 +10 +13 1025.1 889.0
06 12.09 З 4 50 км 8/6 1000 м
[Cb calv Ac cuf]
+13.1 +0.9 43 +12 +14 1022.5 887.5
09 12.09 З 5
{15}
50 км {ливн. осадки} 5/3 1000 м
[Cu Sc As trans]
+12.3 +1.6 48 +10 +12 1022.5 887.3
12 12.09
{12}
50 км {ливн. осадки} н/о +9.8 -0.6 48 +7 +7 1024.3 887.6 +14.5 0.6
15 12.09 З 4 н/о ясно +8.0 -1.2 52 +5 +5 1026.9 889.0
18 12.09 З 2 н/о ясно +5.3 0.0 69 +3 +3 1028.2 889.0
21 12.09 СВ 2 н/о ясно +1.4 -0.9 85 -2 -2 1029.7 888.5
00 13.09 СВ 2 50 км ясно +0.8 -1.2 86 -3 -3 1030.7 889.0 -1.0
03 13.09 ЮВ 1 50 км ясно +8.3 0.0 56 +8 +15 1026.6 889.0
06 13.09 Ю 1 50 км 3/3 1000 м
[Cu hum]
+13.2 -2.0 35 +14 +23 1022.2 887.4
09 13.09 ЮЗ 4 50 км 3/1 1000 м
[Cu hum Ci fib]
+15.7 -5.6 23 +15 +18 1018.2 885.0
12 13.09 З 4 50 км 1/1 1000 м
[Cu Sc]
+13.2 -2.5 34 +12 +12 1018.8 884.4 +16.3
15 13.09 З 2 н/о 3/0
[Ac cuf]
+10.5 -1.1 44 +10 +10 1021.6 885.7
18 13.09 З 2 н/о 3/0
[Ci]
+7.1 -1.2 56 +5 +5 1023.6 885.8
21 13.09 СВ 1 н/о ясно +2.8 -1.4 74 +1 +1 1025.4 885.4
00 14.09 СВ 1 50 км 1/1 1000 м
[Cu Sc]
+2.9 -1.9 71 +2 +2 1026.2 886.1 +1.7
03 14.09 ЮВ 1 50 км ясно +11.9 -0.5 42 +12 +19 1022.4 886.9
06 14.09 З 5 50 км 3/3 1000 м
[Cu med, cong Cc]
+17.7 -2.0 26 +17 +21 1017.3 885.0
09 14.09 З 4
{11}
50 км 5/3 1000 м
[Cu med, cong Ci]
+18.8 -2.4 24 +19 +21 1015.1 883.6
12 14.09 З 6
{11}
50 км 6/3 1000 м
[Cu med, cong Ac lent Ci]
+15.6 -2.0 30 +14 +14 1017.0 883.8 +19.0
15 14.09 З 2 н/о 9/0
[Cs]
+13.1 -1.4 37 +13 +13 1019.8 885.2
18 14.09 штиль 0 н/о 9/0
[Cs]
+7.6 -0.3 57 +7 +7 1022.4 885.1
21 14.09 СВ 1 н/о 4/0
[Ci]
+4.0 -1.1 69 +3 +3 1024.2 884.9
00 15.09 штиль 0 50 км ясно +4.2 -1.7 65 +4 +4 1025.4 886.0 +3.1
03 15.09 штиль 0 50 км ясно +14.2 -0.6 36 +14 +22 1020.7 886.4
06 15.09 З 4 50 км ясно +17.3 -2.1 27 +17 +25 1017.2 884.8
09 15.09 ЮЗ 5 50 км ясно +19.2 -3.0 22 +19 +22 1014.0 882.8
12 15.09 ЮЗ 4 50 км ясно +16.5 -2.3 28 +16 +16 1015.0 882.5 +19.7
15 15.09 З 1 н/о ясно +11.6 -1.2 41 +12 +12 1018.9 883.8
18 15.09 СВ 2 н/о ясно +5.3 -1.5 61 +3 +3 1022.3 883.9
21 15.09 СВ 2 н/о ясно +4.0 -1.8 66 +2 +2 1023.0 883.9
00 16.09 СВ 2 50 км ясно +2.8 -2.4 69 0 0 1025.4 885.4 +1.5
03 16.09 ЮЗ 1 50 км ясно +13.4 -1.2 36 +14 +21 1020.6 886.0

 

Местоположение метеостанции Байтаг (Монголия): широта 46.12 долгота 91.47 высота над уровнем моря 1186 м.

В архиве по умолчанию представлена погода в Байтаге за последнюю неделю. Архивные данные за месяц целиком и за предыдущие месяцы, начиная с января 2011 года, Вы можете получить, выбрав интересующий диапазон дат из раскрывающегося списка и нажав кнопку "Ввод!".


*Определитесь, кто Вы:
робот инопланетянин человек

Внимание! Время в таблицах - всемирное. Для получения местного времени необходимо прибавить поправку, которая равна 8 ч.

Смотрите также архив погоды в соседних городах и на ближайших метеорологических станциях:

Погода в Жаргаланте (Монголия) (94 км)
Погода в Бейта Шан (Синьцзян-Уйгурский автономный район, Китай) (111 км)
Погода в Фуюне (Синьцзян-Уйгурский автономный район, Китай) (177 км)
Погода в Тонхиле (Монголия) (188 км)
Погода в Ховде (Монголия) (211 км)
Погода в Толбо (Монголия) (271 км)
Погода в Цитае (Синьцзян-Уйгурский автономный район, Китай) (277 км)
Погода в Алтае (Синьцзян-Уйгурский автономный район, Китай) (314 км)
Погода в Умнегове (Монголия) (323 км)
Погода в Цзяньфане (Синьцзян-Уйгурский автономный район, Китай) (323 км)

Пояснения к столбцам:

Ветер - указаны скорость ветра в м/с - средняя за 10 мин, порывы в срок и между сроками (в фигурных скобках) и направление, откуда дует ветер: С - северный, СВ - северо-восточный, В - восточный, ЮВ - юго-восточный, Ю - южный, ЮЗ - юго-западный, З - западный, СЗ - северо-западный.
Видимость - горизонтальная дальность видимости в метрах или километрах. При видимости от 1 до 10 км при отсутствии осадков обычно наблюдается дымка, при ухудшении видимости до 1 км и менее - туман. В сухую погоду видимость может ухудшаться дымом, пылью или мглою.
Явления - указаны атмосферные явления, наблюдавшиеся в срок или в последний час перед сроком; фигурными скобками обозначены явления, наблюдавшиеся между сроками (за 1-3 часа до срока); квадратными скобками обозначены град или гололедные отложения с указанием их диаметра в мм.
Облачность - указаны через наклонную черту общая и нижняя облачность в баллах и высота нижней границы облаков в метрах; квадратными скобками обозначены формы облаков: Ci - перистые, Cs - перисто-слоистые, Cc - перисто-кучевые, Ac - высококучевые, As - высокослоистые, Sc - слоисто-кучевые, Ns - слоисто-дождевые, Cu - кучевые, Cb - кучево-дождевые. Подробнее классификацию облаков см. в Атласе облаков (PDF).
T - Температура воздуха - температура, измеренная на высоте 2 м над землей.
Td - Температура точки росы - температура, при понижении до которой содержащийся в воздухе водяной пар достигнет насыщения.
f - Относительная влажность воздуха - влажноcть воздуха, измеренная на высоте 2 м над землей.
Te - Эффективная температура - температура, которую ощущает одетый по сезону человек в тени. Характеристика душности погоды. При расчете учитывается влияние влажности воздуха и скорости ветра на теплоощущения человека.
Tes - Эффективная температура на солнце - температура, которую ощущает человек, с поправкой на солнечный нагрев. Характеристика знойности погоды. Зависит от высоты солнца над горизонтом, облачности и скорости ветра. Ночью, в пасмурную погоду, а также при ветре 12 м/с и более поправка равна нулю.
P - Атмосферное давление - приведенное к уровню моря атмосферное давление.
Po - Атмосферное давление - измеренное на уровне метеостанции атмосферное давление.
Tmin - Минимальная температура - минимум температуры воздуха на высоте 2 м над землей.
Tmax - Максимальная температура - максимум температуры воздуха на высоте 2 м над землей.
R - Количество осадков - Количество выпавших осадков за период времени, мм. При наведении курсора мыши на число - период времени, за который выпало указанное количество осадков.
R24 - Количество осадков - Количество выпавших осадков за 24 часа, мм.
S - Снежный покров - Высота снежного покрова, см. При наведении курсора мыши на число - состояние снежного покрова и степень покрытия местности в баллах.